Time,TemperatureF,DewpointF,PressureIn,WindDirection,WindDirectionDegrees,WindSpeedMPH,WindSpeedGustMPH,Humidity,HourlyPrecipIn,Conditions,Clouds,dailyrainin,SoftwareType,DateUTC
2013-04-26 00:02:00,40.7,35.8,30.01,North,0,1.6,2.0,83,0.00,,,0.00,WUHU216HW,2013-04-25 23:02:00,
2013-04-26 00:07:00,40.7,35.8,30.02,NE,45,0.7,1.6,83,0.00,,,0.00,WUHU216HW,2013-04-25 23:07:00,
2013-04-26 00:12:00,40.5,35.4,30.02,WSW,248,0.0,1.6,82,0.00,,,0.00,WUHU216HW,2013-04-25 23:12:00,
2013-04-26 00:17:00,40.3,35.2,30.02,SW,225,0.4,0.7,82,0.00,,,0.00,WUHU216HW,2013-04-25 23:17:00,
2013-04-26 00:22:00,40.0,34.9,30.02,SW,225,0.0,0.4,82,0.00,,,0.00,WUHU216HW,2013-04-25 23:22:00,
2013-04-26 00:27:00,39.8,34.8,30.02,SW,225,0.4,0.4,82,0.00,,,0.00,WUHU216HW,2013-04-25 23:27:00,
2013-04-26 00:32:00,39.4,34.7,30.02,WSW,248,0.0,1.1,83,0.00,,,0.00,WUHU216HW,2013-04-25 23:32:00,
2013-04-26 00:37:00,39.4,34.7,30.02,WSW,248,0.0,1.1,83,0.00,,,0.00,WUHU216HW,2013-04-25 23:37:00,
2013-04-26 00:42:00,39.2,34.6,30.01,West,270,0.0,0.0,83,0.00,,,0.00,WUHU216HW,2013-04-25 23:42:00,
2013-04-26 00:47:00,39.1,34.4,30.01,West,270,0.2,0.2,83,0.00,,,0.00,WUHU216HW,2013-04-25 23:47:00,
2013-04-26 00:52:00,39.1,34.7,30.02,West,270,0.2,0.2,84,0.00,,,0.00,WUHU216HW,2013-04-25 23:52:00,
2013-04-26 00:57:00,39.1,34.7,30.01,SSW,203,0.0,0.2,84,0.00,,,0.00,WUHU216HW,2013-04-25 23:57:00,
2013-04-26 01:02:00,39.1,34.4,30.01,South,180,0.9,0.9,83,0.00,,,0.00,WUHU216HW,2013-04-26 00:02:00,
2013-04-26 01:07:00,38.9,34.5,30.01,SSW,203,0.7,0.9,84,0.00,,,0.00,WUHU216HW,2013-04-26 00:07:00,
2013-04-26 01:12:00,38.9,34.5,30.01,SSW,203,0.4,0.9,84,0.00,,,0.00,WUHU216HW,2013-04-26 00:12:00,
2013-04-26 01:17:00,38.7,34.3,30.01,West,270,0.4,0.7,84,0.00,,,0.00,WUHU216HW,2013-04-26 00:17:00,
2013-04-26 01:22:00,38.5,34.1,30.01,West,270,0.2,0.4,84,0.00,,,0.00,WUHU216HW,2013-04-26 00:22:00,
2013-04-26 01:27:00,38.5,34.1,30.01,WNW,293,0.4,0.4,84,0.00,,,0.00,WUHU216HW,2013-04-26 00:27:00,
2013-04-26 01:32:00,38.5,34.1,30.01,South,180,0.9,0.9,84,0.00,,,0.00,WUHU216HW,2013-04-26 00:32:00,
2013-04-26 01:37:00,38.5,34.1,30.01,NNW,338,0.4,0.9,84,0.00,,,0.00,WUHU216HW,2013-04-26 00:37:00,
2013-04-26 01:43:00,38.7,34.6,30.00,WNW,293,0.0,0.9,85,0.00,,,0.00,WUHU216HW,2013-04-26 00:43:00,
2013-04-26 01:48:00,38.7,34.6,30.00,WNW,293,0.0,0.4,85,0.00,,,0.00,WUHU216HW,2013-04-26 00:48:00,
2013-04-26 01:53:00,38.7,34.6,30.00,WNW,293,0.0,0.0,85,0.00,,,0.00,WUHU216HW,2013-04-26 00:53:00,
2013-04-26 01:58:00,38.3,33.9,29.99,WNW,293,0.0,0.0,84,0.00,,,0.00,WUHU216HW,2013-04-26 00:58:00,
2013-04-26 02:03:00,38.2,33.8,29.99,WNW,293,0.0,0.0,84,0.00,,,0.00,WUHU216HW,2013-04-26 01:03:00,
2013-04-26 02:08:00,38.0,33.6,29.99,WNW,293,0.0,0.0,84,0.00,,,0.00,WUHU216HW,2013-04-26 01:08:00,
2013-04-26 02:13:00,37.8,33.4,29.99,WNW,293,0.2,0.2,84,0.00,,,0.00,WUHU216HW,2013-04-26 01:13:00,
2013-04-26 02:18:00,37.8,33.7,29.99,WNW,293,0.0,0.2,85,0.00,,,0.00,WUHU216HW,2013-04-26 01:18:00,
2013-04-26 02:23:00,37.8,33.7,29.99,WNW,293,0.9,0.9,85,0.00,,,0.00,WUHU216HW,2013-04-26 01:23:00,
2013-04-26 02:28:00,37.8,33.7,29.99,West,270,0.7,0.9,85,0.00,,,0.00,WUHU216HW,2013-04-26 01:28:00,
2013-04-26 02:33:00,37.8,33.7,29.98,SSE,158,0.4,0.9,85,0.00,,,0.00,WUHU216HW,2013-04-26 01:33:00,
2013-04-26 02:38:00,37.8,33.7,29.98,WSW,248,1.3,1.3,85,0.00,,,0.00,WUHU216HW,2013-04-26 01:38:00,
2013-04-26 02:43:00,37.8,33.7,29.98,WSW,248,0.2,1.3,85,0.00,,,0.00,WUHU216HW,2013-04-26 01:43:00,
2013-04-26 02:48:00,37.8,33.7,29.98,WSW,248,0.2,1.3,85,0.00,,,0.00,WUHU216HW,2013-04-26 01:48:00,
2013-04-26 02:53:00,37.6,33.5,29.98,SW,225,0.4,0.4,85,0.00,,,0.00,WUHU216HW,2013-04-26 01:53:00,
2013-04-26 02:58:00,37.4,33.3,29.98,WSW,248,0.9,0.9,85,0.00,,,0.00,WUHU216HW,2013-04-26 01:58:00,
2013-04-26 03:03:00,37.4,33.3,29.98,WSW,248,0.4,0.9,85,0.00,,,0.00,WUHU216HW,2013-04-26 02:03:00,
2013-04-26 03:08:00,37.1,32.9,29.97,WSW,248,0.7,0.9,85,0.00,,,0.00,WUHU216HW,2013-04-26 02:08:00,
2013-04-26 03:13:00,36.7,32.6,29.97,WSW,248,0.0,0.7,85,0.00,,,0.00,WUHU216HW,2013-04-26 02:13:00,
2013-04-26 03:18:00,36.7,32.6,29.97,West,270,0.9,0.9,85,0.00,,,0.00,WUHU216HW,2013-04-26 02:18:00,
2013-04-26 03:23:00,36.7,32.9,29.97,West,270,0.4,0.9,86,0.00,,,0.00,WUHU216HW,2013-04-26 02:23:00,
2013-04-26 03:28:00,36.5,32.7,29.96,West,270,0.2,0.9,86,0.00,,,0.00,WUHU216HW,2013-04-26 02:28:00,
2013-04-26 03:33:00,36.5,32.7,29.97,West,270,0.7,0.7,86,0.00,,,0.00,WUHU216HW,2013-04-26 02:33:00,
2013-04-26 03:38:00,36.4,32.5,29.97,WNW,293,1.1,1.1,86,0.00,,,0.00,WUHU216HW,2013-04-26 02:38:00,
2013-04-26 03:43:00,36.5,32.7,29.97,NW,315,0.9,1.1,86,0.00,,,0.00,WUHU216HW,2013-04-26 02:43:00,
2013-04-26 03:48:00,36.5,32.7,29.97,NW,315,0.9,1.1,86,0.00,,,0.00,WUHU216HW,2013-04-26 02:48:00,
2013-04-26 03:53:00,36.5,32.7,29.96,NW,315,1.1,1.1,86,0.00,,,0.00,WUHU216HW,2013-04-26 02:53:00,
2013-04-26 03:58:00,36.7,32.9,29.96,NE,45,0.7,1.1,86,0.00,,,0.00,WUHU216HW,2013-04-26 02:58:00,
2013-04-26 04:03:00,36.9,33.0,29.96,NNE,23,0.4,1.1,86,0.00,,,0.00,WUHU216HW,2013-04-26 03:03:00,
2013-04-26 04:08:00,37.4,33.6,29.96,SE,135,0.2,0.7,86,0.00,,,0.00,WUHU216HW,2013-04-26 03:08:00,
2013-04-26 04:13:00,37.4,33.6,29.96,SE,135,0.2,0.4,86,0.00,,,0.00,WUHU216HW,2013-04-26 03:13:00,
2013-04-26 04:18:00,37.4,33.6,29.95,SE,135,0.7,0.7,86,0.00,,,0.00,WUHU216HW,2013-04-26 03:18:00,
2013-04-26 04:23:00,37.4,33.6,29.96,ENE,68,0.2,0.7,86,0.00,,,0.00,WUHU216HW,2013-04-26 03:23:00,
2013-04-26 04:28:00,37.1,33.2,29.96,North,0,0.0,0.7,86,0.00,,,0.00,WUHU216HW,2013-04-26 03:28:00,
2013-04-26 04:33:00,37.1,33.2,29.95,North,0,0.0,0.2,86,0.00,,,0.00,WUHU216HW,2013-04-26 03:33:00,
2013-04-26 04:38:00,36.9,33.0,29.95,North,0,0.0,0.0,86,0.00,,,0.00,WUHU216HW,2013-04-26 03:38:00,
2013-04-26 04:43:00,36.4,32.2,29.95,North,0,0.0,0.0,85,0.00,,,0.00,WUHU216HW,2013-04-26 03:43:00,
2013-04-26 04:48:00,36.0,31.9,29.94,North,0,0.0,0.0,85,0.00,,,0.00,WUHU216HW,2013-04-26 03:48:00,
2013-04-26 04:53:00,35.6,31.5,29.94,North,0,0.0,0.0,85,0.00,,,0.00,WUHU216HW,2013-04-26 03:53:00,
2013-04-26 04:58:00,35.5,31.1,29.94,North,0,0.0,0.0,84,0.00,,,0.00,WUHU216HW,2013-04-26 03:58:00,
2013-04-26 05:03:00,34.9,30.5,29.94,North,0,0.0,0.0,84,0.00,,,0.00,WUHU216HW,2013-04-26 04:03:00,
2013-04-26 05:08:00,34.7,30.6,29.94,North,0,0.0,0.0,85,0.00,,,0.00,WUHU216HW,2013-04-26 04:08:00,
2013-04-26 05:13:00,34.6,30.4,29.94,North,0,0.0,0.0,85,0.00,,,0.00,WUHU216HW,2013-04-26 04:13:00,
2013-04-26 05:18:00,34.7,30.6,29.94,North,0,0.0,0.0,85,0.00,,,0.00,WUHU216HW,2013-04-26 04:18:00,
2013-04-26 05:23:00,34.7,30.9,29.94,North,0,0.0,0.0,86,0.00,,,0.00,WUHU216HW,2013-04-26 04:23:00,
2013-04-26 05:28:00,34.7,30.9,29.94,North,0,0.0,0.0,86,0.00,,,0.00,WUHU216HW,2013-04-26 04:28:00,
2013-04-26 05:33:00,34.6,30.7,29.94,North,0,0.0,0.0,86,0.00,,,0.00,WUHU216HW,2013-04-26 04:33:00,
2013-04-26 05:38:00,34.4,30.2,29.94,NNE,23,0.4,0.4,85,0.00,,,0.00,WUHU216HW,2013-04-26 04:38:00,
2013-04-26 05:43:00,34.4,30.5,29.94,NE,45,0.4,0.4,86,0.00,,,0.00,WUHU216HW,2013-04-26 04:43:00,
2013-04-26 05:48:00,34.7,30.9,29.94,WNW,293,0.0,0.4,86,0.00,,,0.00,WUHU216HW,2013-04-26 04:48:00,
2013-04-26 05:53:00,34.7,30.9,29.94,WNW,293,0.4,0.4,86,0.00,,,0.00,WUHU216HW,2013-04-26 04:53:00,
2013-04-26 05:58:00,34.9,31.1,29.93,WNW,293,0.4,0.4,86,0.00,,,0.00,WUHU216HW,2013-04-26 04:58:00,
2013-04-26 06:03:00,35.3,31.4,29.93,NW,315,0.0,0.4,86,0.00,,,0.00,WUHU216HW,2013-04-26 05:03:00,
2013-04-26 06:08:00,35.6,31.8,29.93,NNW,338,0.2,0.4,86,0.00,,,0.00,WUHU216HW,2013-04-26 05:08:00,
2013-04-26 06:13:00,35.8,32.2,29.93,NE,45,0.2,0.2,87,0.00,,,0.00,WUHU216HW,2013-04-26 05:13:00,
2013-04-26 06:18:00,36.4,33.1,29.93,NNW,338,0.4,1.8,88,0.00,,,0.00,WUHU216HW,2013-04-26 05:18:00,
2013-04-26 06:23:00,36.4,33.1,29.93,West,270,0.9,1.8,88,0.00,,,0.00,WUHU216HW,2013-04-26 05:23:00,
2013-04-26 06:28:00,36.4,33.1,29.93,NW,315,0.0,0.9,88,0.00,,,0.00,WUHU216HW,2013-04-26 05:28:00,
2013-04-26 06:33:00,36.4,32.8,29.93,NW,315,0.2,0.9,87,0.00,,,0.00,WUHU216HW,2013-04-26 05:33:00,
2013-04-26 06:38:00,36.5,32.9,29.93,WNW,293,0.0,0.4,87,0.00,,,0.00,WUHU216HW,2013-04-26 05:38:00,
2013-04-26 06:43:00,36.5,32.9,29.93,WNW,293,0.2,0.4,87,0.00,,,0.00,WUHU216HW,2013-04-26 05:43:00,
2013-04-26 06:48:00,36.7,33.1,29.93,WNW,293,0.4,0.4,87,0.00,,,0.00,WUHU216HW,2013-04-26 05:48:00,
2013-04-26 06:53:00,37.1,33.5,29.93,WNW,293,0.0,0.4,87,0.00,,,0.00,WUHU216HW,2013-04-26 05:53:00,
2013-04-26 06:58:00,37.3,33.7,29.93,WNW,293,0.4,0.4,87,0.00,,,0.00,WUHU216HW,2013-04-26 05:58:00,
2013-04-26 07:03:00,37.4,33.8,29.93,WNW,293,1.3,1.3,87,0.00,,,0.00,WUHU216HW,2013-04-26 06:03:00,
2013-04-26 07:08:00,37.4,33.8,29.93,West,270,1.1,1.3,87,0.00,,,0.00,WUHU216HW,2013-04-26 06:08:00,
2013-04-26 07:13:00,38.2,34.6,29.93,SSW,203,0.4,1.3,87,0.00,,,0.00,WUHU216HW,2013-04-26 06:13:00,
2013-04-26 07:18:00,38.5,34.9,29.92,SSW,203,0.4,1.1,87,0.00,,,0.00,WUHU216HW,2013-04-26 06:18:00,
2013-04-26 07:23:00,38.5,34.7,29.92,NW,315,1.1,1.1,86,0.00,,,0.00,WUHU216HW,2013-04-26 06:23:00,
2013-04-26 07:28:00,38.7,34.8,29.92,SSE,158,0.7,1.1,86,0.00,,,0.00,WUHU216HW,2013-04-26 06:28:00,
2013-04-26 07:33:00,39.1,35.2,29.92,ENE,68,1.1,1.3,86,0.00,,,0.00,WUHU216HW,2013-04-26 06:33:00,
2013-04-26 07:38:00,39.1,35.2,29.91,WNW,293,2.2,2.2,86,0.01,,,0.01,WUHU216HW,2013-04-26 06:38:00,
2013-04-26 07:43:00,39.1,35.2,29.91,NW,315,0.9,2.2,86,0.01,,,0.01,WUHU216HW,2013-04-26 06:43:00,
2013-04-26 07:48:00,39.2,35.4,29.92,ESE,113,0.9,2.2,86,0.01,,,0.01,WUHU216HW,2013-04-26 06:48:00,
2013-04-26 07:53:00,39.2,35.4,29.92,South,180,2.5,2.5,86,0.01,,,0.01,WUHU216HW,2013-04-26 06:53:00,
2013-04-26 07:58:00,39.2,35.6,29.92,East,90,2.5,2.5,87,0.01,,,0.01,WUHU216HW,2013-04-26 06:58:00,
2013-04-26 08:03:00,38.9,35.3,29.91,ESE,113,1.1,2.5,87,0.02,,,0.02,WUHU216HW,2013-04-26 07:03:00,
2013-04-26 08:08:00,38.9,35.3,29.91,SSE,158,0.2,2.9,87,0.03,,,0.03,WUHU216HW,2013-04-26 07:08:00,
2013-04-26 08:13:00,39.2,35.6,29.90,NW,315,3.4,3.4,87,0.03,,,0.03,WUHU216HW,2013-04-26 07:13:00,
2013-04-26 08:18:00,40.7,37.4,29.90,SSE,158,2.0,3.4,88,0.03,,,0.03,WUHU216HW,2013-04-26 07:18:00,
2013-04-26 08:23:00,42.5,39.2,29.90,North,0,1.1,3.4,88,0.03,,,0.03,WUHU216HW,2013-04-26 07:23:00,
2013-04-26 08:28:00,44.6,40.4,29.90,NW,315,2.5,2.5,85,0.03,,,0.03,WUHU216HW,2013-04-26 07:28:00,
2013-04-26 08:33:00,43.6,39.1,29.90,WNW,293,1.8,2.5,84,0.03,,,0.03,WUHU216HW,2013-04-26 07:33:00,
2013-04-26 08:38:00,42.7,38.2,29.90,NW,315,2.9,2.9,84,0.02,,,0.03,WUHU216HW,2013-04-26 07:38:00,
2013-04-26 08:43:00,42.1,37.9,29.90,WSW,248,2.5,2.9,85,0.02,,,0.03,WUHU216HW,2013-04-26 07:43:00,
2013-04-26 08:48:00,42.3,38.1,29.89,SSW,203,1.1,2.9,85,0.02,,,0.03,WUHU216HW,2013-04-26 07:48:00,
2013-04-26 08:53:00,42.1,37.9,29.89,SSE,158,1.8,2.5,85,0.02,,,0.03,WUHU216HW,2013-04-26 07:53:00,
2013-04-26 08:58:00,42.1,37.9,29.89,WNW,293,1.8,1.8,85,0.02,,,0.03,WUHU216HW,2013-04-26 07:58:00,
2013-04-26 09:03:00,41.9,37.7,29.90,NE,45,1.3,1.8,85,0.01,,,0.03,WUHU216HW,2013-04-26 08:03:00,
2013-04-26 09:08:00,41.6,37.1,29.89,SSE,158,2.9,2.9,84,0.00,,,0.03,WUHU216HW,2013-04-26 08:08:00,
2013-04-26 09:13:00,41.8,37.5,29.89,ESE,113,2.5,2.9,85,0.00,,,0.03,WUHU216HW,2013-04-26 08:13:00,
2013-04-26 09:18:00,42.1,37.9,29.89,SE,135,1.1,2.9,85,0.00,,,0.03,WUHU216HW,2013-04-26 08:18:00,
2013-04-26 09:23:00,42.8,38.4,29.89,ESE,113,1.1,2.5,84,0.00,,,0.03,WUHU216HW,2013-04-26 08:23:00,
2013-04-26 09:28:00,44.3,39.8,29.89,NW,315,2.5,2.5,84,0.00,,,0.03,WUHU216HW,2013-04-26 08:28:00,
2013-04-26 09:33:00,45.9,40.8,29.88,SSW,203,0.7,2.5,82,0.00,,,0.03,WUHU216HW,2013-04-26 08:33:00,
2013-04-26 09:38:00,47.2,41.7,29.88,NNW,338,3.4,3.4,81,0.00,,,0.03,WUHU216HW,2013-04-26 08:38:00,
2013-04-26 09:43:00,45.5,39.1,29.88,NNE,23,1.6,3.4,78,0.00,,,0.03,WUHU216HW,2013-04-26 08:43:00,
2013-04-26 09:48:00,44.8,38.3,29.87,SSE,158,2.2,2.5,78,0.00,,,0.03,WUHU216HW,2013-04-26 08:48:00,
2013-04-26 09:53:00,44.6,38.2,29.87,East,90,2.9,2.9,78,0.00,,,0.03,WUHU216HW,2013-04-26 08:53:00,
2013-04-26 09:58:00,44.3,37.8,29.88,NW,315,2.7,2.9,78,0.00,,,0.03,WUHU216HW,2013-04-26 08:58:00,
2013-04-26 10:03:00,44.3,37.8,29.88,NW,315,1.3,2.9,78,0.00,,,0.03,WUHU216HW,2013-04-26 09:03:00,
2013-04-26 10:08:00,44.3,37.8,29.88,South,180,2.5,2.7,78,0.00,,,0.03,WUHU216HW,2013-04-26 09:08:00,
2013-04-26 10:13:00,44.5,38.0,29.88,ENE,68,0.7,2.5,78,0.00,,,0.03,WUHU216HW,2013-04-26 09:13:00,
2013-04-26 10:18:00,45.7,39.0,29.87,ESE,113,1.1,2.5,77,0.00,,,0.03,WUHU216HW,2013-04-26 09:18:00,
2013-04-26 10:23:00,46.3,39.5,29.87,SSE,158,1.3,1.3,77,0.00,,,0.03,WUHU216HW,2013-04-26 09:23:00,
2013-04-26 10:28:00,46.3,39.5,29.87,East,90,1.1,1.3,77,0.00,,,0.03,WUHU216HW,2013-04-26 09:28:00,
2013-04-26 10:33:00,47.0,39.8,29.87,SE,135,1.8,1.8,76,0.00,,,0.03,WUHU216HW,2013-04-26 09:33:00,
2013-04-26 10:38:00,47.2,39.6,29.87,NNW,338,4.7,4.7,75,0.00,,,0.03,WUHU216HW,2013-04-26 09:38:00,
2013-04-26 10:43:00,47.5,40.0,29.87,West,270,0.4,4.7,75,0.00,,,0.03,WUHU216HW,2013-04-26 09:43:00,
2013-04-26 10:48:00,47.2,39.0,29.87,SSW,203,2.5,4.7,73,0.00,,,0.03,WUHU216HW,2013-04-26 09:48:00,
2013-04-26 10:53:00,46.3,38.4,29.87,East,90,1.1,2.5,74,0.00,,,0.03,WUHU216HW,2013-04-26 09:53:00,
2013-04-26 10:58:00,46.4,39.0,29.87,NW,315,5.1,5.1,75,0.00,,,0.03,WUHU216HW,2013-04-26 09:58:00,
2013-04-26 11:03:00,46.4,38.6,29.87,NW,315,3.6,5.1,74,0.00,,,0.03,WUHU216HW,2013-04-26 10:03:00,
2013-04-26 11:08:00,46.4,39.0,29.86,South,180,0.7,5.1,75,0.00,,,0.03,WUHU216HW,2013-04-26 10:08:00,
2013-04-26 11:13:00,46.8,39.3,29.87,South,180,1.6,3.6,75,0.00,,,0.03,WUHU216HW,2013-04-26 10:13:00,
2013-04-26 11:18:00,47.0,39.4,29.87,NW,315,2.5,2.5,75,0.00,,,0.03,WUHU216HW,2013-04-26 10:18:00,
2013-04-26 11:23:00,47.2,39.6,29.86,WNW,293,3.1,3.1,75,0.00,,,0.03,WUHU216HW,2013-04-26 10:23:00,
2013-04-26 11:28:00,48.1,40.4,29.86,SSE,158,1.8,3.1,75,0.00,,,0.03,WUHU216HW,2013-04-26 10:28:00,
2013-04-26 11:34:00,48.4,39.8,29.86,NW,315,4.9,4.9,72,0.00,,,0.03,WUHU216HW,2013-04-26 10:34:00,
2013-04-26 11:39:00,47.9,39.2,29.86,SSE,158,2.5,4.9,72,0.00,,,0.03,WUHU216HW,2013-04-26 10:39:00,
2013-04-26 11:44:00,47.7,39.4,29.86,East,90,2.5,4.9,73,0.00,,,0.03,WUHU216HW,2013-04-26 10:44:00,
2013-04-26 11:49:00,48.2,39.6,29.85,South,180,2.7,2.7,72,0.00,,,0.03,WUHU216HW,2013-04-26 10:49:00,
2013-04-26 11:54:00,48.6,40.0,29.85,SSE,158,4.7,4.7,72,0.00,,,0.03,WUHU216HW,2013-04-26 10:54:00,
2013-04-26 11:59:00,49.0,40.3,29.85,North,0,2.0,4.7,72,0.00,,,0.03,WUHU216HW,2013-04-26 10:59:00,
2013-04-26 12:04:00,49.5,39.8,29.85,NNW,338,1.6,4.7,69,0.00,,,0.03,WUHU216HW,2013-04-26 11:04:00,
2013-04-26 12:09:00,49.9,39.7,29.85,West,270,1.1,2.0,68,0.00,,,0.03,WUHU216HW,2013-04-26 11:09:00,
2013-04-26 12:14:00,49.5,39.3,29.85,WNW,293,2.5,2.5,68,0.00,,,0.03,WUHU216HW,2013-04-26 11:14:00,
2013-04-26 12:19:00,48.8,39.1,29.85,NW,315,4.5,4.5,69,0.00,,,0.03,WUHU216HW,2013-04-26 11:19:00,
2013-04-26 12:24:00,48.6,38.9,29.85,NNW,338,1.8,4.5,69,0.00,,,0.03,WUHU216HW,2013-04-26 11:24:00,
2013-04-26 12:29:00,49.3,39.2,29.85,WNW,293,3.8,4.5,68,0.00,,,0.03,WUHU216HW,2013-04-26 11:29:00,
2013-04-26 12:34:00,49.9,39.3,29.84,WNW,293,4.0,4.0,67,0.00,,,0.03,WUHU216HW,2013-04-26 11:34:00,
2013-04-26 12:39:00,49.9,38.9,29.84,WNW,293,1.1,4.0,66,0.00,,,0.03,WUHU216HW,2013-04-26 11:39:00,
2013-04-26 12:44:00,50.4,39.1,29.84,NW,315,0.9,4.0,65,0.00,,,0.03,WUHU216HW,2013-04-26 11:44:00,
2013-04-26 12:49:00,50.8,39.8,29.84,SSW,203,3.6,3.6,66,0.00,,,0.03,WUHU216HW,2013-04-26 11:49:00,
2013-04-26 12:54:00,50.9,40.0,29.84,WNW,293,6.0,6.0,66,0.00,,,0.03,WUHU216HW,2013-04-26 11:54:00,
2013-04-26 12:59:00,51.5,39.7,29.84,SSW,203,3.8,6.0,64,0.00,,,0.03,WUHU216HW,2013-04-26 11:59:00,
2013-04-26 13:04:00,51.8,40.0,29.84,NW,315,4.3,6.0,64,0.00,,,0.03,WUHU216HW,2013-04-26 12:04:00,
2013-04-26 13:09:00,52.0,39.3,29.84,West,270,3.4,4.3,62,0.00,,,0.03,WUHU216HW,2013-04-26 12:09:00,
2013-04-26 13:14:00,51.8,39.2,29.84,NNW,338,3.1,4.3,62,0.00,,,0.03,WUHU216HW,2013-04-26 12:14:00,
2013-04-26 13:19:00,52.0,39.3,29.84,SSE,158,2.9,3.4,62,0.00,,,0.03,WUHU216HW,2013-04-26 12:19:00,
2013-04-26 13:24:00,52.0,39.0,29.84,WNW,293,4.5,4.5,61,0.00,,,0.03,WUHU216HW,2013-04-26 12:24:00,
2013-04-26 13:29:00,52.0,39.8,29.84,NNW,338,2.5,4.5,63,0.00,,,0.03,WUHU216HW,2013-04-26 12:29:00,
2013-04-26 13:34:00,52.0,39.0,29.84,North,0,4.9,4.9,61,0.00,,,0.03,WUHU216HW,2013-04-26 12:34:00,
2013-04-26 13:39:00,52.0,38.5,29.84,NW,315,2.9,4.9,60,0.00,,,0.03,WUHU216HW,2013-04-26 12:39:00,
2013-04-26 13:44:00,51.5,38.0,29.85,NW,315,7.4,7.4,60,0.00,,,0.03,WUHU216HW,2013-04-26 12:44:00,
2013-04-26 13:49:00,50.4,38.3,29.85,NW,315,2.5,7.4,63,0.00,,,0.03,WUHU216HW,2013-04-26 12:49:00,
2013-04-26 13:54:00,50.8,39.0,29.84,South,180,4.3,7.4,64,0.00,,,0.03,WUHU216HW,2013-04-26 12:54:00,
2013-04-26 13:59:00,51.1,38.1,29.84,WNW,293,6.9,6.9,61,0.00,,,0.03,WUHU216HW,2013-04-26 12:59:00,
2013-04-26 14:04:00,51.3,38.3,29.84,WNW,293,2.5,6.9,61,0.00,,,0.03,WUHU216HW,2013-04-26 13:04:00,
2013-04-26 14:09:00,51.5,38.4,29.84,North,0,1.8,6.9,61,0.00,,,0.03,WUHU216HW,2013-04-26 13:09:00,
2013-04-26 14:14:00,51.5,37.1,29.84,WNW,293,4.7,5.1,58,0.00,,,0.03,WUHU216HW,2013-04-26 13:14:00,
2013-04-26 14:19:00,51.1,37.3,29.84,WNW,293,3.1,5.1,59,0.00,,,0.03,WUHU216HW,2013-04-26 13:19:00,
2013-04-26 14:24:00,51.1,37.7,29.84,WNW,293,1.8,4.7,60,0.00,,,0.03,WUHU216HW,2013-04-26 13:24:00,
2013-04-26 14:29:00,51.7,37.7,29.84,ESE,113,3.4,3.4,59,0.00,,,0.03,WUHU216HW,2013-04-26 13:29:00,
2013-04-26 14:34:00,52.6,39.1,29.84,NW,315,3.8,3.8,60,0.00,,,0.03,WUHU216HW,2013-04-26 13:34:00,
2013-04-26 14:39:00,52.7,39.6,29.84,ENE,68,3.1,3.8,61,0.00,,,0.03,WUHU216HW,2013-04-26 13:39:00,
2013-04-26 14:44:00,52.9,39.4,29.84,NW,315,2.9,3.8,60,0.00,,,0.03,WUHU216HW,2013-04-26 13:44:00,
2013-04-26 14:49:00,51.8,38.8,29.84,SSE,158,2.5,5.6,61,0.00,,,0.03,WUHU216HW,2013-04-26 13:49:00,
2013-04-26 14:54:00,52.0,39.3,29.84,NW,315,5.4,5.6,62,0.00,,,0.03,WUHU216HW,2013-04-26 13:54:00,
2013-04-26 14:59:00,51.7,39.0,29.84,WNW,293,4.5,5.4,62,0.00,,,0.03,WUHU216HW,2013-04-26 13:59:00,
2013-04-26 15:04:00,52.2,39.5,29.84,WNW,293,2.5,5.4,62,0.00,,,0.03,WUHU216HW,2013-04-26 14:04:00,
2013-04-26 15:09:00,52.2,37.4,29.85,WNW,293,3.6,4.7,57,0.00,,,0.03,WUHU216HW,2013-04-26 14:09:00,
2013-04-26 15:14:00,51.5,36.2,29.84,NW,315,4.0,4.7,56,0.00,,,0.03,WUHU216HW,2013-04-26 14:14:00,
2013-04-26 15:19:00,50.8,36.5,29.84,NW,315,2.5,4.0,58,0.00,,,0.03,WUHU216HW,2013-04-26 14:19:00,
2013-04-26 15:24:00,51.8,38.3,29.84,WNW,293,7.4,7.4,60,0.00,,,0.03,WUHU216HW,2013-04-26 14:24:00,
2013-04-26 15:29:00,52.2,38.3,29.84,WNW,293,7.6,7.6,59,0.00,,,0.03,WUHU216HW,2013-04-26 14:29:00,
2013-04-26 15:34:00,52.9,38.5,29.84,NW,315,5.6,7.6,58,0.00,,,0.03,WUHU216HW,2013-04-26 14:34:00,
2013-04-26 15:39:00,52.9,39.4,29.84,NW,315,4.0,7.6,60,0.00,,,0.03,WUHU216HW,2013-04-26 14:39:00,
2013-04-26 15:44:00,51.7,36.8,29.84,WNW,293,0.9,5.6,57,0.00,,,0.03,WUHU216HW,2013-04-26 14:44:00,
2013-04-26 15:49:00,51.5,36.2,29.85,NW,315,2.0,5.4,56,0.00,,,0.03,WUHU216HW,2013-04-26 14:49:00,
2013-04-26 15:54:00,50.2,36.5,29.86,NNW,338,1.1,2.0,59,0.00,,,0.03,WUHU216HW,2013-04-26 14:54:00,
2013-04-26 15:59:00,48.8,36.4,29.86,NW,315,3.6,3.6,62,0.00,,,0.03,WUHU216HW,2013-04-26 14:59:00,
2013-04-26 16:04:00,45.0,35.8,29.86,NW,315,1.1,3.8,70,0.00,,,0.03,WUHU216HW,2013-04-26 15:04:00,
2013-04-26 16:09:00,44.6,35.1,29.86,NW,315,1.3,3.8,69,0.01,,,0.04,WUHU216HW,2013-04-26 15:09:00,
2013-04-26 16:14:00,44.6,35.1,29.86,NNE,23,2.0,2.0,69,0.01,,,0.04,WUHU216HW,2013-04-26 15:14:00,
2013-04-26 16:19:00,44.8,35.3,29.85,NNW,338,0.9,2.0,69,0.01,,,0.04,WUHU216HW,2013-04-26 15:19:00,
2013-04-26 16:24:00,45.9,35.9,29.86,West,270,3.4,4.0,68,0.02,,,0.05,WUHU216HW,2013-04-26 15:24:00,
2013-04-26 16:29:00,46.1,36.1,29.86,NW,315,4.0,4.0,68,0.02,,,0.05,WUHU216HW,2013-04-26 15:29:00,
2013-04-26 16:34:00,46.4,36.5,29.86,WNW,293,2.5,4.0,68,0.02,,,0.05,WUHU216HW,2013-04-26 15:34:00,
2013-04-26 16:39:00,47.3,38.4,29.86,NW,315,1.1,4.0,71,0.02,,,0.05,WUHU216HW,2013-04-26 15:39:00,
2013-04-26 16:44:00,47.7,38.0,29.86,North,0,4.0,4.0,69,0.02,,,0.05,WUHU216HW,2013-04-26 15:44:00,
2013-04-26 16:49:00,47.7,37.6,29.86,NNE,23,1.8,4.0,68,0.03,,,0.06,WUHU216HW,2013-04-26 15:49:00,
2013-04-26 16:54:00,47.9,37.8,29.86,NW,315,3.4,4.0,68,0.03,,,0.06,WUHU216HW,2013-04-26 15:54:00,
2013-04-26 16:59:00,47.0,37.0,29.86,NNW,338,3.4,3.4,68,0.03,,,0.06,WUHU216HW,2013-04-26 15:59:00,
2013-04-26 17:04:00,46.6,36.6,29.86,WNW,293,6.5,6.5,68,0.03,,,0.06,WUHU216HW,2013-04-26 16:04:00,
2013-04-26 17:09:00,46.1,36.1,29.86,NW,315,6.5,6.5,68,0.03,,,0.07,WUHU216HW,2013-04-26 16:09:00,
2013-04-26 17:14:00,45.2,36.0,29.87,NW,315,3.4,6.5,70,0.03,,,0.07,WUHU216HW,2013-04-26 16:14:00,
2013-04-26 17:19:00,44.8,35.3,29.87,NNW,338,4.0,6.5,69,0.03,,,0.07,WUHU216HW,2013-04-26 16:19:00,
2013-04-26 17:24:00,44.5,35.7,29.86,WNW,293,2.5,4.0,71,0.02,,,0.07,WUHU216HW,2013-04-26 16:24:00,
2013-04-26 17:29:00,44.3,35.5,29.87,NW,315,2.9,4.0,71,0.02,,,0.07,WUHU216HW,2013-04-26 16:29:00,
2013-04-26 17:34:00,43.9,35.2,29.87,NW,315,1.1,2.9,71,0.02,,,0.07,WUHU216HW,2013-04-26 16:34:00,
2013-04-26 17:39:00,44.3,35.8,29.87,NNW,338,5.4,5.4,72,0.02,,,0.07,WUHU216HW,2013-04-26 16:39:00,
2013-04-26 17:44:00,45.0,35.8,29.87,WNW,293,3.4,5.4,70,0.01,,,0.07,WUHU216HW,2013-04-26 16:44:00,
2013-04-26 17:49:00,45.7,35.4,29.88,NW,315,4.0,5.4,67,0.01,,,0.07,WUHU216HW,2013-04-26 16:49:00,
2013-04-26 17:54:00,45.7,34.6,29.88,WNW,293,4.5,4.5,65,0.01,,,0.07,WUHU216HW,2013-04-26 16:54:00,
2013-04-26 17:59:00,45.7,35.0,29.88,NW,315,4.7,4.7,66,0.01,,,0.07,WUHU216HW,2013-04-26 16:59:00,
2013-04-26 18:04:00,45.5,35.2,29.88,NW,315,5.4,5.4,67,0.00,,,0.07,WUHU216HW,2013-04-26 17:04:00,
2013-04-26 18:09:00,45.4,35.4,29.88,WNW,293,4.0,6.3,68,0.00,,,0.07,WUHU216HW,2013-04-26 17:09:00,
2013-04-26 18:14:00,45.0,34.7,29.89,NW,315,2.0,6.3,67,0.00,,,0.07,WUHU216HW,2013-04-26 17:14:00,
2013-04-26 18:19:00,45.0,34.7,29.89,NNW,338,2.7,4.0,67,0.00,,,0.07,WUHU216HW,2013-04-26 17:19:00,
2013-04-26 18:24:00,44.8,34.9,29.89,NNW,338,8.1,8.1,68,0.00,,,0.07,WUHU216HW,2013-04-26 17:24:00,
2013-04-26 18:29:00,44.1,35.3,29.89,NW,315,6.5,8.1,71,0.00,,,0.07,WUHU216HW,2013-04-26 17:29:00,
2013-04-26 18:34:00,43.9,35.8,29.89,NW,315,5.1,8.1,73,0.00,,,0.07,WUHU216HW,2013-04-26 17:34:00,
2013-04-26 18:39:00,43.6,35.8,29.89,WNW,293,2.0,6.5,74,0.00,,,0.07,WUHU216HW,2013-04-26 17:39:00,
2013-04-26 18:44:00,43.2,35.8,29.89,North,0,4.5,5.1,75,0.00,,,0.07,WUHU216HW,2013-04-26 17:44:00,
2013-04-26 18:49:00,42.8,35.1,29.89,NNW,338,4.7,4.7,74,0.00,,,0.07,WUHU216HW,2013-04-26 17:49:00,
2013-04-26 18:54:00,42.8,34.8,29.89,NNW,338,2.5,4.7,73,0.00,,,0.07,WUHU216HW,2013-04-26 17:54:00,
2013-04-26 18:59:00,42.8,34.8,29.89,WNW,293,6.9,6.9,73,0.00,,,0.07,WUHU216HW,2013-04-26 17:59:00,
2013-04-26 19:04:00,43.6,34.8,29.89,NNW,338,1.3,6.9,71,0.00,,,0.07,WUHU216HW,2013-04-26 18:04:00,
2013-04-26 19:09:00,43.9,35.5,29.90,WNW,293,0.9,6.9,72,0.00,,,0.07,WUHU216HW,2013-04-26 18:09:00,
2013-04-26 19:14:00,43.9,35.8,29.90,NW,315,3.8,3.8,73,0.00,,,0.07,WUHU216HW,2013-04-26 18:14:00,
2013-04-26 19:19:00,43.9,35.8,29.91,WNW,293,2.2,3.8,73,0.00,,,0.07,WUHU216HW,2013-04-26 18:19:00,
2013-04-26 19:24:00,43.7,35.0,29.91,WNW,293,0.9,3.8,71,0.00,,,0.07,WUHU216HW,2013-04-26 18:24:00,
2013-04-26 19:29:00,43.6,35.2,29.91,SSW,203,1.1,2.2,72,0.00,,,0.07,WUHU216HW,2013-04-26 18:29:00,
2013-04-26 19:34:00,43.4,35.0,29.91,WNW,293,1.8,1.8,72,0.00,,,0.07,WUHU216HW,2013-04-26 18:34:00,
2013-04-26 19:39:00,43.2,35.2,29.91,WNW,293,1.1,1.8,73,0.00,,,0.07,WUHU216HW,2013-04-26 18:39:00,
2013-04-26 19:44:00,43.2,35.2,29.91,WNW,293,1.8,1.8,73,0.00,,,0.07,WUHU216HW,2013-04-26 18:44:00,
2013-04-26 19:49:00,43.2,35.2,29.91,NW,315,2.0,2.0,73,0.00,,,0.07,WUHU216HW,2013-04-26 18:49:00,
2013-04-26 19:54:00,43.4,35.3,29.91,SSW,203,1.1,2.0,73,0.00,,,0.07,WUHU216HW,2013-04-26 18:54:00,
2013-04-26 19:59:00,43.2,35.5,29.91,NNE,23,1.3,2.0,74,0.00,,,0.07,WUHU216HW,2013-04-26 18:59:00,
2013-04-26 20:04:00,43.2,35.5,29.91,NW,315,1.8,1.8,74,0.00,,,0.07,WUHU216HW,2013-04-26 19:04:00,
2013-04-26 20:09:00,43.0,35.7,29.91,WNW,293,3.4,3.4,75,0.00,,,0.07,WUHU216HW,2013-04-26 19:09:00,
2013-04-26 20:14:00,43.0,35.7,29.91,West,270,4.9,4.9,75,0.00,,,0.07,WUHU216HW,2013-04-26 19:14:00,
2013-04-26 20:19:00,42.8,35.8,29.91,NW,315,4.3,10.7,76,0.00,,,0.07,WUHU216HW,2013-04-26 19:19:00,
2013-04-26 20:24:00,42.8,35.8,29.92,NW,315,2.0,10.7,76,0.00,,,0.07,WUHU216HW,2013-04-26 19:24:00,
2013-04-26 20:29:00,42.8,35.8,29.92,NW,315,5.1,5.1,76,0.00,,,0.07,WUHU216HW,2013-04-26 19:29:00,
2013-04-26 20:34:00,42.7,35.7,29.92,NW,315,4.3,5.1,76,0.00,,,0.07,WUHU216HW,2013-04-26 19:34:00,
2013-04-26 20:39:00,42.5,35.7,29.93,NW,315,2.5,7.6,77,0.00,,,0.07,WUHU216HW,2013-04-26 19:39:00,
2013-04-26 20:44:00,42.3,35.6,29.93,WNW,293,2.2,7.6,77,0.00,,,0.07,WUHU216HW,2013-04-26 19:44:00,
2013-04-26 20:49:00,42.1,35.4,29.93,NW,315,4.7,4.7,77,0.00,,,0.07,WUHU216HW,2013-04-26 19:49:00,
2013-04-26 20:54:00,41.9,35.2,29.93,NW,315,4.9,4.9,77,0.00,,,0.07,WUHU216HW,2013-04-26 19:54:00,
2013-04-26 20:59:00,41.9,35.2,29.93,WNW,293,2.2,4.9,77,0.00,,,0.07,WUHU216HW,2013-04-26 19:59:00,
2013-04-26 21:04:00,41.9,35.2,29.93,NW,315,0.9,4.9,77,0.00,,,0.07,WUHU216HW,2013-04-26 20:04:00,
2013-04-26 21:09:00,41.9,34.9,29.94,WNW,293,2.0,2.2,76,0.00,,,0.07,WUHU216HW,2013-04-26 20:09:00,
2013-04-26 21:14:00,42.1,35.1,29.94,NW,315,0.9,4.3,76,0.00,,,0.07,WUHU216HW,2013-04-26 20:14:00,
2013-04-26 21:19:00,42.1,35.1,29.94,WNW,293,1.8,4.3,76,0.00,,,0.07,WUHU216HW,2013-04-26 20:19:00,
2013-04-26 21:24:00,42.1,35.1,29.94,WNW,293,1.8,1.8,76,0.00,,,0.07,WUHU216HW,2013-04-26 20:24:00,
2013-04-26 21:29:00,42.1,34.7,29.95,WNW,293,0.2,1.8,75,0.00,,,0.07,WUHU216HW,2013-04-26 20:29:00,
2013-04-26 21:34:00,42.1,35.4,29.95,SSE,158,0.2,3.1,77,0.00,,,0.07,WUHU216HW,2013-04-26 20:34:00,
2013-04-26 21:39:00,42.1,35.4,29.95,WSW,248,0.4,3.1,77,0.00,,,0.07,WUHU216HW,2013-04-26 20:39:00,
2013-04-26 21:44:00,41.9,35.2,29.95,NW,315,4.0,4.0,77,0.00,,,0.07,WUHU216HW,2013-04-26 20:44:00,
2013-04-26 21:49:00,41.8,35.0,29.95,ESE,113,0.9,4.0,77,0.00,,,0.07,WUHU216HW,2013-04-26 20:49:00,
2013-04-26 21:54:00,41.8,35.0,29.96,NE,45,0.4,4.0,77,0.00,,,0.07,WUHU216HW,2013-04-26 20:54:00,
2013-04-26 22:00:00,41.8,35.4,29.96,WNW,293,1.1,1.1,78,0.00,,,0.07,WUHU216HW,2013-04-26 21:00:00,
2013-04-26 22:05:00,41.6,35.2,29.96,ESE,113,1.3,1.3,78,0.00,,,0.07,WUHU216HW,2013-04-26 21:05:00,
2013-04-26 22:10:00,41.4,35.6,29.96,NNW,338,0.4,1.3,80,0.00,,,0.07,WUHU216HW,2013-04-26 21:10:00,
2013-04-26 22:15:00,41.2,35.5,29.97,WNW,293,2.0,2.0,80,0.01,,,0.08,WUHU216HW,2013-04-26 21:15:00,
2013-04-26 22:20:00,41.0,35.6,29.97,North,0,1.1,2.0,81,0.01,,,0.08,WUHU216HW,2013-04-26 21:20:00,
2013-04-26 22:25:00,40.7,35.3,29.97,WNW,293,2.0,3.6,81,0.01,,,0.08,WUHU216HW,2013-04-26 21:25:00,
2013-04-26 22:30:00,40.7,35.3,29.97,NW,315,2.7,3.6,81,0.01,,,0.08,WUHU216HW,2013-04-26 21:30:00,
2013-04-26 22:35:00,40.5,35.4,29.98,NNW,338,3.4,3.4,82,0.02,,,0.09,WUHU216HW,2013-04-26 21:35:00,
2013-04-26 22:40:00,40.5,35.4,29.98,WNW,293,2.5,3.4,82,0.02,,,0.09,WUHU216HW,2013-04-26 21:40:00,
2013-04-26 22:45:00,40.5,35.7,29.98,WNW,293,1.1,3.4,83,0.02,,,0.09,WUHU216HW,2013-04-26 21:45:00,
2013-04-26 22:50:00,40.3,35.2,29.98,WNW,293,0.0,2.2,82,0.02,,,0.09,WUHU216HW,2013-04-26 21:50:00,
2013-04-26 22:55:00,40.3,35.2,29.98,SE,135,1.8,1.8,82,0.02,,,0.09,WUHU216HW,2013-04-26 21:55:00,
2013-04-26 23:00:00,40.1,35.4,29.98,WNW,293,1.1,1.8,83,0.02,,,0.09,WUHU216HW,2013-04-26 22:00:00,
2013-04-26 23:05:00,40.0,35.2,29.98,West,270,0.4,1.8,83,0.02,,,0.09,WUHU216HW,2013-04-26 22:05:00,
2013-04-26 23:10:00,40.0,34.9,29.98,WNW,293,0.4,1.1,82,0.02,,,0.09,WUHU216HW,2013-04-26 22:10:00,
2013-04-26 23:15:00,40.0,35.2,29.98,West,270,0.0,0.4,83,0.01,,,0.09,WUHU216HW,2013-04-26 22:15:00,
2013-04-26 23:20:00,40.0,35.2,29.99,West,270,0.0,0.7,83,0.01,,,0.09,WUHU216HW,2013-04-26 22:20:00,
2013-04-26 23:25:00,40.0,35.2,29.99,West,270,0.0,0.7,83,0.01,,,0.09,WUHU216HW,2013-04-26 22:25:00,
2013-04-26 23:30:00,40.0,35.2,29.99,West,270,0.0,0.0,83,0.02,,,0.10,WUHU216HW,2013-04-26 22:30:00,
2013-04-26 23:35:00,40.0,35.2,29.99,SW,225,0.9,0.9,83,0.01,,,0.10,WUHU216HW,2013-04-26 22:35:00,
2013-04-26 23:40:00,40.0,35.2,29.99,SW,225,0.0,0.9,83,0.01,,,0.10,WUHU216HW,2013-04-26 22:40:00,
2013-04-26 23:45:00,39.8,35.3,29.99,SW,225,0.4,0.9,84,0.01,,,0.10,WUHU216HW,2013-04-26 22:45:00,
2013-04-26 23:50:00,39.8,35.3,29.99,WSW,248,0.2,0.4,84,0.01,,,0.10,WUHU216HW,2013-04-26 22:50:00,
2013-04-26 23:55:00,40.0,35.5,29.99,West,270,1.1,1.1,84,0.01,,,0.10,WUHU216HW,2013-04-26 22:55:00,